Weather in Starogard Gdanski

Poland     53°57′54″N   18°31′18″E
temp.,
°C
wind,
m/s
gust,
m/s
humid.,
%
clouds,
%
prec.,
mm/h
press.,
hPa
HPBL,
m
30 june, thu
thu3023:00+15ne479667 0.0 1017127
02:00+14ne2295100 0.0 101822
05:00+15ene2293100 0.0 101627
08:00+20ene3474100 0.0 1016350
11:00+25e456576 0.1 10161025
14:00+28se4654100 0.1 10141603
17:00+25ne3476100 3.5 1013274
20:00+20n3597100 20.4 1012114
1 july, fri
fri123:00+18ene229871 1.1 101333
02:00+19se1197100 2.8 101318
05:00+19e33945 0.4 101347
08:00+23sse35840 0.4 1013327
11:00+29sse45590 0.0 1013889
14:00+33se68440 0.0 10121948
17:00+33se810450 0.0 10102110
20:00+28se7145657 0.1 1009542
2 july, sat
sat223:00+19n1194100 18.1 101449
02:00+19wsw3696100 18.9 1016342
05:00+16wnw71394100 0.2 1018629
08:00+17wnw71185100 0.2 1020782
11:00+19nw675964 0.0 10221245
14:00+22wnw565279 0.0 10221776
17:00+23nw554626 0.0 10221892
20:00+19nw48640 0.0 1022224
3 july, sun
sun323:00+13wnw11810 0.0 102311
02:00+12w11800 0.0 102310
05:00+12wsw22780 0.0 102312
08:00+18sw11590 0.0 1022251
11:00+23s11440 0.0 10211046
14:00+25e22362 0.0 10201745
17:00+25e43400 0.0 10191324
20:00+21ene36662 0.0 1019118
4 july, mon
mon423:00+16se35780 0.0 101867
02:00+15sse356620 0.0 101876
05:00+15ssw3972100 0.0 1017149
08:00+18ssw367878 0.4 1017245
11:00+25nw33513 0.0 10171060
14:00+25nnw4450100 0.0 10171294
17:00+25nw245499 0.4 10171345
20:00+19ne35841 1.3 1018161